Location: Wildlife_Club
(35.6000°N, 81.4330°W)
Time: 02:40:58
(UTC-04:00)

A-11 Canister half - Pass Details

Date: 02 July 2019
Orbit: 1514 x 1685 km, 47.2° (Epoch: 17 July)

Event Time Altitude Azimuth Distance (km) Brightness Sun altitude
Rises 11:38:09 0° 278° (W) 4,923 11.4 62.7°
Reaches altitude 10° 11:41:37 10° 285° (WNW) 3,921 11.0 63.4°
Maximum altitude 11:51:02 43° 355° (N) 2,180 10.3 65.2°
Drops below altitude 10° 12:00:09 10° 64° (ENE) 3,804 11.4 66.8°
Sets 12:03:29 0° 72° (ENE) 4,765 11.8 67.4°
